Change the Weather History Date:

Friday, November 2, 2012

  Actual Average Record
Temperature  
Mean Temperature 48 °F -  
Max Temperature 58 °F 63 °F 82 °F (2004)
Min Temperature 40 °F 46 °F 39 °F (2006)
Degree Days  
Heating Degree Days 16    
Moisture  
Dew Point 34 °F    
Average Humidity 60    
Maximum Humidity 79    
Minimum Humidity 36    
Precipitation  
Precipitation 0.00 in - - ()
Sea Level Pressure  
Sea Level Pressure 29.83 in    
Wind  
Wind Speed 7 mph (WNW)    
Max Wind Speed 18 mph    
Max Gust Speed 29 mph    
Visibility 10 miles    
Events      
Averages and records for this station are not official NWS values.
T = Trace of Precipitation, MM = Missing Value Source: NWS Daily Summary

Daily Weather History Graph

Daily Weather History Graph

Search for Another Location

Airport or City:

Trip Planner

Search our weather history database for the weather conditions in past years. The results will help you decide how hot, cold, wet, or windy it might be!

Date:

Astronomy

Nov. 02, 2012 Rise Set
Actual Time 7:32 AM EDT 6:07 PM EDT
Civil Twilight 7:05 AM EDT 6:34 PM EDT
Nautical Twilight 6:34 AM EDT 7:05 PM EDT
Astronomical Twilight 6:04 AM EDT 7:35 PM EDT
Moon 8:55 PM EDT (11/2) 10:48 AM EDT (11/2)
Length of Visible Light 11h 29m
Length of Day
10h 35m
Waning Gibbous, 87% of the Moon is Illuminated
Nov 2
Waning Gibbous
Nov 6
Last Quarter
Nov 13
New
Nov 20
First Quarter
Nov 28
Full

Hourly Weather History & Observations

Time (EDT) Temp. Windchill Dew Point Humidity Pressure Visibility Wind Dir Wind Speed Gust Speed Precip Events Conditions
12:55 AM 47.7 °F - 38.5 °F 70% 29.79 in 10.0 mi WNW 9.2 mph - N/A   Overcast
1:55 AM 46.9 °F - 38.1 °F 71% 29.79 in 10.0 mi West 5.8 mph - N/A   Overcast
2:55 AM 46.2 °F 44.1 °F 37.2 °F 71% 29.81 in 10.0 mi West 4.6 mph - N/A   Overcast
3:55 AM 43.5 °F 40.9 °F 35.4 °F 73% 29.80 in 10.0 mi West 4.6 mph - N/A   Clear
4:55 AM 41.9 °F - 35.2 °F 77% 29.80 in 10.0 mi Calm Calm - N/A   Clear
5:55 AM 40.3 °F 37.1 °F 34.3 °F 79% 29.80 in 10.0 mi West 4.6 mph - N/A   Clear
6:55 AM 41.0 °F 35.2 °F 33.4 °F 74% 29.82 in 10.0 mi West 9.2 mph - N/A   Clear
7:55 AM 41.4 °F 37.6 °F 33.6 °F 74% 29.83 in 10.0 mi West 5.8 mph - N/A   Clear
8:55 AM 43.7 °F 41.1 °F 33.3 °F 67% 29.84 in 10.0 mi Variable 4.6 mph - N/A   Clear
9:55 AM 48.4 °F - 33.8 °F 57% 29.83 in 10.0 mi West 6.9 mph - N/A   Clear
10:55 AM 53.8 °F - 34.5 °F 48% 29.82 in 10.0 mi WNW 9.2 mph - N/A   Scattered Clouds
11:55 AM 56.5 °F - 34.0 °F 43% 29.81 in 10.0 mi West 12.7 mph 20.7 mph N/A   Mostly Cloudy
12:55 PM 57.9 °F - 31.1 °F 36% 29.79 in 10.0 mi WNW 18.4 mph 27.6 mph N/A   Scattered Clouds
1:55 PM 57.9 °F - 32.5 °F 38% 29.77 in 10.0 mi WNW 17.3 mph 28.8 mph N/A   Scattered Clouds
2:55 PM 57.9 °F - 33.8 °F 40% 29.77 in 10.0 mi WNW 16.1 mph 21.9 mph N/A   Clear
3:55 PM 55.6 °F - 32.9 °F 42% 29.78 in 10.0 mi NW 13.8 mph - N/A   Partly Cloudy
4:55 PM 55.6 °F - 30.6 °F 39% 29.80 in 10.0 mi NW 16.1 mph - N/A   Clear
5:55 PM 53.2 °F - 33.6 °F 47% 29.83 in 10.0 mi NW 10.4 mph - N/A   Clear
6:55 PM 50.4 °F - 35.4 °F 57% 29.86 in 10.0 mi WNW 6.9 mph - N/A   Clear
7:55 PM 49.1 °F - 35.6 °F 60% 29.88 in 10.0 mi Calm Calm - N/A   Clear
8:55 PM 49.5 °F - 33.8 °F 55% 29.91 in 10.0 mi Calm Calm - N/A   Clear
9:55 PM 43.3 °F - 37.2 °F 79% 29.93 in 10.0 mi Calm Calm - N/A   Clear
10:55 PM 41.9 °F - 34.5 °F 75% 29.94 in 10.0 mi Calm Calm - N/A   Clear
11:55 PM 41.7 °F 39.8 °F 35.4 °F 78% 29.95 in 10.0 mi North 3.5 mph - N/A   Clear